Temperature
14 14 14 15 12 11 13 14 14 14 14 14 14 15 14 13 14 15 14 14 14 14 14 15 15 15 16 16 16 16 16 16 17 17 17 17 17 17 17 17 17 17 17 16 16 16 16 16 16
14 14 14 14 11 12 13 13 13 14 14 15 14 14 13 13 14 14 13 14 14 14 14 14 15 15 15 16 16 16 16 16 16 16 16 16 16 16 16 16 16 16 16 16 16 16 16 16 16
13 14 14 10 11 12 14 14 13 14 14 14 13 13 13 13 13 13 13 13 14 14 14 14 14 15 15 15 15 15 16 16 16 16 16 16 16 16 16 16 16 16 16 16 16 16 16 16 16
14 14 13 10 12 12 13 14 13 13 14 14 13 12 13 13 13 13 13 13 14 14 14 14 14 14 14 15 15 15 15 15 15 15 16 16 16 16 16 16 16 16 16 16 16 16 16 16 16
14 14 11 11 12 12 12 13 13 13 13 13 13 11 12 13 13 13 13 13 14 14 14 14 14 14 14 14 14 14 14 15 15 15 15 15 15 15 15 15 15 15 16 16 16 15 15 15 15
14 10 10 11 12 12 12 13 14 12 12 13 12 11 12 13 13 13 13 13 13 13 13 13 14 14 14 14 14 14 14 14 14 14 14 15 15 15 15 15 15 15 15 15 15 15 15 15 15
12 9 10 11 11 12 13 13 13 12 12 13 13 11 12 12 13 13 13 13 13 13 13 13 13 13 13 13 13 13 13 13 14 14 14 14 14 14 14 14 14 14 15 15 15 15 15 15 15
13 9 11 10 11 12 13 13 13 13 12 13 13 11 12 12 12 12 12 13 13 13 13 13 13 13 13 13 13 13 13 13 13 13 13 13 14 14 14 14 14 14 14 14 14 15 15 15 15
13 9 10 11 11 12 12 12 12 13 12 12 13 13 13 13 12 12 12 12 12 12 12 12 12 12 12 12 12 12 12 12 12 13 13 13 13 13 13 13 13 13 14 14 14 14 14 14 14
11 9 10 11 11 11 12 12 12 12 11 11 12 12 13 12 12 12 12 12 12 12 12 12 12 12 12 12 12 12 12 12 12 12 12 12 12 12 13 13 13 13 13 13 13 13 13 14 14
10 9 10 11 11 11 11 11 12 11 10 11 12 13 12 12 12 12 12 12 12 12 11 11 11 11 11 11 11 11 11 11 11 11 11 12 12 12 12 12 12 12 12 13 13 13 13 13 13
9 9 10 11 11 11 11 11 11 11 12 13 13 13 12 12 12 12 12 12 12 11 11 11 11 11 11 11 11 11 11 11 11 11 11 11 11 11 11 12 12 12 12 12 12 12 12 12 12
9 10 10 11 11 11 11 10 10 11 12 12 12 12 12 12 12 12 11 11 11 11 11 11 11 11 10 10 10 10 10 10 10 10 10 10 10 10 11 11 11 11 11 11 11 11 11 12 12
9 9 10 10 10 10 10 9 9 11 12 12 12 12 12 12 11 11 11 11 11 11 11 10 10 10 10 10 10 10 9 9 9 9 9 10 10 10 10 10 10 10 10 10 10 11 11 11 11
10 9 9 9 9 9 9 9 8 11 11 11 11 11 11 11 11 11 11 11 11 11 10 10 10 10 10 10 9 9 9 9 9 9 9 9 9 9 9 9 9 9 10 10 10 10 10 10 10
9 8 9 9 8 8 9 9 9 11 10 10 11 11 11 11 11 11 11 11 10 10 10 10 10 9 9 9 9 9 9 9 9 9 9 9 8 8 9 9 9 9 9 9 9 9 9 10 10
8 7 8 8 8 7 8 8 9 9 9 9 10 10 10 11 11 11 10 10 10 10 10 9 9 9 9 9 9 8 8 8 8 8 8 8 8 8 8 8 8 8 8 8 8 8 8 9 9
7 7 7 8 7 7 6 7 7 9 8 8 9 9 10 10 11 11 10 10 10 10 9 9 9 9 9 9 8 8 8 8 8 8 8 8 8 7 7 7 7 8 8 8 8 8 8 8 8
7 7 7 7 7 7 6 6 7 8 7 7 8 9 9 10 11 10 10 10 9 9 9 9 9 9 8 8 8 8 8 8 8 8 7 7 7 7 7 7 7 7 7 7 7 7 7 7 7
7 7 7 7 7 7 6 6 6 6 6 7 8 8 9 10 10 10 10 9 9 9 9 9 8 8 8 8 8 8 8 8 8 7 7 7 7 7 7 6 6 6 6 7 7 6 6 6 6
7 7 7 7 7 6 6 7 7 7 7 8 8 9 9 10 10 10 10 9 9 9 9 9 8 8 8 8 8 8 7 7 7 7 7 7 7 6 6 6 6 6 6 6 6 6 6 6 6
7 7 7 7 6 5 6 6 7 7 6 6 7 8 9 9 10 10 9 9 9 9 9 8 8 8 8 7 7 7 7 7 7 7 7 6 6 6 6 6 6 5 5 5 5 5 5 5 5
6 6 6 6 5 4 4 5 6 6 7 7 6 8 8 9 9 9 9 9 9 9 8 8 8 8 7 7 7 7 7 6 6 6 6 6 6 6 6 5 5 5 5 5 5 5 5 5 5
5 5 4 3 3 5 5 5 6 5 7 7 7 8 8 9 9 9 9 9 9 8 8 8 8 8 7 7 7 7 6 6 6 6 6 6 5 5 5 5 5 5 5 5 5 5 4 4 4
5 5 5 5 4 5 4 4 6 6 6 6 6 7 8 9 9 9 9 8 8 8 8 8 7 7 7 7 7 6 6 6 6 5 5 5 5 5 5 5 5 4 4 4 4 4 4 4 4
5 6 6 6 6 5 4 4 6 6 6 6 7 7 8 8 8 8 8 8 8 8 8 7 7 7 7 7 7 6 6 5 5 5 5 5 5 5 5 4 4 4 4 4 4 4 4 4 4
4 4 4 3 3 4 4 3 4 6 6 5 6 6 7 8 8 8 8 8 8 8 7 7 7 7 6 6 6 6 6 5 5 5 5 5 4 4 4 4 4 4 4 4 4 3 3 3 3
5 3 3 3 5 6 6 5 6 7 7 6 5 5 7 8 8 8 8 8 8 7 7 7 7 6 6 6 6 6 5 5 5 5 5 4 4 4 4 4 4 3 3 3 3 3 3 3 3
4 3 3 2 3 4 5 7 6 6 6 5 5 6 7 8 8 8 8 7 7 7 7 7 6 6 6 6 5 5 5 5 5 4 4 4 4 4 3 3 3 3 3 3 3 3 3 3 3
4 3 2 4 3 2 3 6 7 5 5 5 5 6 7 8 8 8 7 7 7 7 7 7 6 6 6 5 5 5 5 4 4 4 4 4 4 3 3 3 3 3 3 3 3 3 3 3 3
Wind_Speed
4 3 3 4 5 4 3 4 3 2 1 1 2 5 7 5 4 4 2 1 2 1 3 6 9 10 10 11 11 11 11 10 9 9 8 7 7 6 5 4 4 4 3 2 2 3 3 5 5
1 1 4 5 5 1 5 4 4 3 3 3 4 4 5 3 2 4 1 1 2 3 5 6 9 10 10 10 11 11 11 11 11 9 8 8 7 7 6 5 4 3 3 2 2 2 2 4 5
1 3 4 5 4 6 5 3 4 1 2 3 3 4 4 3 2 3 2 3 4 4 5 6 9 10 10 10 11 11 11 11 11 11 10 8 7 7 7 6 5 4 3 3 2 2 2 2 3
3 4 5 4 4 5 4 2 3 4 3 4 4 4 1 1 2 3 3 4 5 4 6 6 9 9 10 10 11 11 11 11 11 11 11 10 8 7 6 7 6 5 4 3 2 2 1 2 2
4 4 4 0 4 4 3 2 3 3 3 2 4 4 1 3 3 4 5 5 6 4 5 7 9 9 10 10 10 11 11 11 11 11 10 10 10 9 7 7 6 5 4 4 3 2 1 1 1
4 4 4 4 4 3 2 1 3 3 3 3 5 5 1 1 3 3 4 4 4 4 5 7 8 9 9 9 10 11 11 11 11 11 11 11 10 10 9 7 7 7 5 4 4 3 3 2 0
5 4 4 5 3 3 2 2 4 5 4 4 6 5 1 1 2 4 4 4 4 5 5 6 7 7 8 9 9 10 10 10 11 11 11 11 11 11 10 9 8 7 7 6 5 5 4 3 1
5 5 3 3 4 4 1 2 2 4 3 3 5 7 5 4 4 5 5 5 4 4 4 4 6 6 6 7 8 8 9 9 10 10 11 11 11 10 10 10 9 7 6 6 6 5 5 5 3
4 4 4 5 7 4 2 3 1 2 4 1 1 4 4 6 6 5 4 3 3 3 2 2 3 4 5 5 6 7 7 8 8 8 9 9 9 8 8 9 9 8 7 6 5 5 5 5 4
4 4 6 4 4 3 2 3 3 3 2 1 0 1 4 6 7 6 4 3 2 1 1 1 1 2 3 3 4 5 5 6 6 6 7 7 7 7 8 8 8 8 7 6 5 5 4 4 4
5 6 3 2 2 2 2 2 2 5 4 7 7 7 6 6 6 6 5 4 4 2 1 1 0 1 2 2 3 3 4 4 5 6 6 6 6 6 7 6 6 6 6 5 5 4 4 3 3
4 3 3 2 1 2 3 2 2 5 7 5 7 9 8 8 8 8 7 5 3 3 3 2 1 0 0 1 1 2 2 3 3 4 4 4 3 3 4 4 5 5 4 4 3 3 3 3 3
3 2 1 1 1 1 1 3 3 6 6 2 4 7 8 8 7 6 6 5 4 4 4 3 2 1 1 0 0 1 1 1 2 3 3 3 2 2 3 3 3 4 3 3 3 2 2 2 2
3 2 1 1 1 1 2 3 3 8 4 4 6 8 8 8 7 5 5 5 5 5 5 3 3 2 1 1 1 1 1 1 2 2 3 3 2 2 2 3 3 3 3 2 2 2 2 3 3
2 2 3 2 2 1 1 6 7 7 4 6 7 7 7 7 7 8 8 7 7 6 5 4 3 2 2 2 2 1 1 1 2 3 3 3 3 2 2 3 3 4 4 3 2 3 2 3 3
3 2 2 3 3 2 3 9 6 4 6 7 7 7 7 7 7 8 8 7 6 5 4 4 3 2 2 3 2 2 2 2 2 3 4 4 4 3 2 3 4 4 4 2 2 2 2 3 3
1 2 4 4 2 2 4 9 6 1 5 7 7 7 7 7 6 6 6 7 6 6 5 4 3 3 3 3 2 2 2 2 3 4 4 4 5 4 3 3 4 4 3 2 3 2 2 3 4
5 5 4 5 2 2 5 10 11 5 5 8 8 7 7 8 9 7 6 6 5 4 4 4 3 3 2 1 1 2 2 3 3 4 5 6 5 5 4 4 4 4 3 3 2 3 3 3 4
5 5 4 4 1 3 8 12 14 8 6 8 8 8 8 9 8 5 5 5 4 3 3 4 3 3 2 1 1 2 3 3 3 4 6 6 6 5 4 5 4 4 4 4 4 3 3 3 2
3 3 3 3 1 2 6 12 12 9 8 9 10 10 10 8 5 5 4 4 4 4 4 4 4 4 3 3 2 2 3 3 3 4 5 6 6 6 5 5 5 5 4 4 4 3 3 3 1
5 6 5 3 3 2 5 9 7 5 5 6 7 8 8 9 9 7 5 6 5 5 5 5 5 5 4 3 2 2 1 2 2 3 4 4 6 6 6 6 5 5 4 5 4 4 4 4 3
6 5 5 2 0 4 2 5 8 5 6 7 7 7 8 8 7 7 7 6 6 7 5 5 5 5 4 3 2 3 3 4 5 4 4 5 5 6 6 6 6 5 5 5 5 5 5 5 5
4 3 3 2 3 2 1 3 10 4 6 8 8 8 8 7 8 8 8 8 7 5 4 4 4 4 4 4 4 4 5 5 5 4 5 6 5 6 7 6 6 6 5 6 6 6 6 6 6
6 5 5 4 3 3 5 5 8 6 8 6 6 7 7 7 7 6 5 4 4 3 3 3 4 5 4 4 4 5 6 6 6 6 6 6 5 5 6 6 6 6 6 7 7 7 7 8 8
4 5 3 3 2 7 3 5 11 8 7 6 7 7 7 6 6 5 5 5 4 4 4 4 4 5 5 5 5 6 7 7 7 7 6 7 6 6 7 6 6 6 7 7 7 8 8 8 9
6 7 7 6 6 5 2 8 9 6 5 6 6 5 4 5 6 6 6 6 5 5 4 4 5 6 5 5 6 6 6 6 6 7 6 7 6 7 7 7 7 8 8 8 7 7 8 8 9
7 4 5 6 2 3 6 8 10 4 4 4 3 3 4 5 5 6 5 5 5 5 6 6 6 6 6 6 6 6 6 6 7 7 7 7 7 7 7 7 8 8 8 8 8 7 9 8 8
5 8 6 5 4 5 6 6 6 6 5 3 3 4 5 4 4 5 5 5 5 5 5 5 6 7 7 6 6 5 5 6 6 6 7 7 7 7 7 8 8 8 8 8 8 7 8 9 9
5 4 5 5 4 5 4 8 6 7 5 6 6 5 5 5 5 5 5 4 4 4 4 5 5 6 6 6 5 5 5 5 5 6 7 7 7 7 8 8 8 8 8 8 8 8 9 10 9
5 7 8 6 5 5 4 8 5 5 5 5 5 4 4 4 4 4 4 4 4 4 5 5 5 5 6 5 5 5 5 5 6 6 7 7 7 8 8 8 8 8 8 8 9 10 10 10 10
Wind_Direction
360 40 76 60 60 59 230 238 217 187 171 75 87 111 128 129 147 156 182 97 111 93 51 64 66 64 60 54 51 49 46 44 45 47 48 50 51 50 53 66 74 81 97 112 121 136 146 148 146
18 86 60 65 99 160 253 231 201 191 161 125 74 82 88 87 74 110 130 116 108 84 64 67 69 65 61 56 51 48 46 43 40 38 40 43 44 42 41 49 60 65 68 75 89 111 130 146 152
121 59 86 87 141 190 218 208 190 130 103 106 83 64 108 128 134 150 184 136 95 70 61 68 72 66 61 56 50 47 46 43 40 37 34 33 34 36 37 35 44 49 53 55 67 92 104 132 152
96 55 61 93 209 225 226 215 167 127 76 61 105 81 64 58 174 163 130 114 101 72 58 64 73 68 63 57 50 47 45 44 40 37 33 30 25 24 28 29 33 39 39 42 50 64 84 104 142
62 83 87 168 237 245 243 228 170 142 127 85 113 117 70 357 65 106 118 116 110 86 58 62 72 69 63 57 51 48 45 43 40 36 33 29 25 19 15 22 23 26 29 27 31 36 44 92 103
63 76 117 209 235 255 254 213 146 131 129 122 124 125 175 14 91 111 116 110 105 94 61 59 70 66 61 57 52 48 44 41 38 34 31 28 25 21 19 16 18 20 19 13 21 27 21 15 41
113 118 177 199 213 243 219 151 146 142 146 177 152 130 187 246 156 120 104 98 81 74 67 57 60 60 61 58 52 47 43 41 38 34 31 28 25 22 19 16 15 18 20 18 23 28 21 10 356
125 120 171 206 199 228 189 119 127 143 156 141 142 150 193 204 142 106 85 75 68 57 54 52 53 56 55 54 51 47 42 39 37 34 31 27 23 18 15 12 7 9 12 16 21 25 23 15 2
95 92 205 212 196 216 165 127 80 86 114 102 176 184 188 134 121 101 82 54 50 43 33 44 46 46 51 54 51 44 40 37 34 31 28 24 20 13 10 7 4 1 3 6 11 16 16 14 2
104 174 219 216 192 184 166 157 157 112 113 168 214 76 115 124 136 137 141 152 162 221 317 22 41 37 44 46 42 40 37 35 34 30 26 24 19 11 5 0 359 356 357 0 358 3 13 17 5
155 194 218 232 201 166 154 167 167 148 212 208 197 180 154 153 158 164 175 181 192 208 233 266 281 45 54 48 40 34 31 27 25 22 20 21 19 11 6 4 354 349 352 359 348 355 8 5 3
168 224 205 226 180 158 168 167 192 200 222 205 188 169 164 172 182 187 189 198 199 204 227 243 226 137 65 52 34 31 28 19 13 5 7 19 19 7 1 0 350 352 348 348 349 350 347 348 345
190 221 211 214 175 192 176 222 226 244 241 197 161 167 180 188 200 206 199 200 202 212 230 237 225 209 199 81 358 33 5 343 337 345 349 4 4 336 340 338 342 336 337 337 324 322 314 307 314
193 184 262 280 245 254 214 264 234 252 214 183 181 191 200 201 203 204 204 210 215 218 226 230 222 218 193 220 243 260 292 303 327 326 316 325 339 320 323 319 319 316 317 310 302 283 276 274 271
97 72 331 263 205 223 107 284 233 238 175 190 203 207 214 219 212 209 211 210 214 218 220 220 221 210 207 228 244 251 276 304 305 302 304 304 306 300 297 301 302 305 306 300 301 296 278 278 275
74 76 272 271 182 166 153 261 259 209 178 209 217 220 226 233 228 225 217 214 213 209 214 222 221 206 222 234 246 254 273 289 287 288 293 289 288 290 289 286 289 302 304 289 270 273 275 277 280
60 206 235 278 199 160 190 250 271 200 197 222 225 226 231 240 243 234 219 210 206 204 206 215 220 217 227 237 252 259 275 278 283 288 287 282 278 278 272 271 282 296 290 270 270 273 257 267 281
206 210 231 244 245 178 230 257 275 270 226 236 237 234 232 233 236 230 216 210 204 201 204 210 220 223 223 245 283 294 288 278 282 280 279 275 275 272 271 270 275 278 276 272 262 265 260 255 267
160 175 225 251 247 212 244 265 274 267 241 240 240 235 234 236 241 228 216 203 193 198 205 211 214 228 212 244 264 272 273 274 275 270 272 270 268 267 263 267 270 261 259 263 257 257 262 264 258
158 189 240 285 331 233 280 277 270 250 234 230 230 231 230 235 239 228 218 204 202 209 216 218 223 232 231 232 236 236 247 259 264 271 277 271 270 271 268 256 261 256 255 262 256 241 254 262 228
208 202 215 240 344 4 324 300 274 261 238 236 225 225 225 220 220 219 217 217 215 224 223 226 235 240 244 240 257 291 303 302 290 280 275 269 272 271 264 260 257 257 246 253 255 239 236 250 243
224 210 191 189 30 295 25 292 283 266 272 247 234 226 225 222 216 213 214 218 221 228 230 237 246 246 248 238 235 240 254 266 263 267 271 278 272 270 266 257 252 252 250 252 255 249 232 235 246
181 114 128 139 157 306 257 229 282 283 262 253 238 231 230 223 214 212 213 217 223 223 229 246 256 258 256 248 236 241 254 260 272 278 278 280 277 270 266 260 253 251 249 250 250 253 241 233 234
132 83 70 61 81 271 222 196 275 241 230 253 246 237 231 226 222 220 216 217 228 232 238 250 257 264 262 256 249 240 250 262 275 279 278 278 276 271 265 262 254 254 251 249 249 248 245 238 235
126 108 51 354 329 249 192 213 251 247 232 230 246 246 237 221 212 214 216 224 231 233 240 251 256 267 270 263 257 248 249 251 256 265 267 273 276 275 268 264 257 256 255 254 252 249 249 242 236
178 156 166 197 226 268 216 236 254 254 261 252 252 247 230 214 212 217 220 221 226 230 234 242 252 262 267 265 264 259 252 250 256 258 261 264 268 269 269 265 263 261 258 259 256 256 252 248 241
147 179 155 132 133 271 264 277 296 260 271 259 255 241 228 223 220 224 228 228 226 230 238 238 247 259 267 267 267 263 256 252 259 264 263 265 267 271 268 267 266 264 260 258 255 257 255 253 246
147 144 125 143 170 244 280 269 255 274 268 269 261 249 247 236 234 235 238 237 236 240 249 250 247 253 263 266 264 269 264 262 264 267 269 269 270 269 271 271 270 268 266 263 259 262 257 253 252
140 146 144 141 165 178 252 267 229 233 243 246 252 250 241 240 241 242 247 248 251 254 252 251 254 261 267 267 266 270 275 275 275 274 273 273 273 271 268 268 269 268 267 265 261 261 260 255 256
178 174 157 166 209 193 206 267 272 243 254 245 256 262 255 254 257 256 256 264 265 259 260 254 254 259 264 267 268 271 276 281 283 282 281 279 278 275 269 268 267 267 267 264 260 261 261 256 256
Height
1479 1480 1483 1486 1490 1501 1500 1492 1488 1487 1486 1486 1486 1487 1489 1493 1496 1502 1500 1498 1499 1501 1502 1502 1503 1503 1504 1504 1504 1505 1505 1505 1505 1506 1506 1506 1506 1507 1507 1508 1508 1509 1509 1510 1511 1512 1512 1513 1513
1479 1481 1485 1486 1496 1504 1498 1489 1487 1485 1485 1486 1486 1488 1489 1492 1493 1495 1496 1498 1499 1500 1501 1502 1503 1503 1503 1504 1504 1504 1504 1504 1504 1504 1505 1505 1505 1505 1506 1506 1506 1507 1508 1509 1509 1510 1511 1512 1512
1479 1482 1485 1488 1496 1499 1490 1485 1485 1484 1485 1485 1487 1488 1490 1492 1493 1495 1496 1497 1499 1500 1501 1501 1502 1502 1502 1502 1502 1503 1503 1503 1503 1503 1503 1503 1503 1504 1504 1505 1505 1506 1506 1507 1508 1508 1509 1510 1510
1480 1483 1485 1492 1493 1490 1486 1483 1483 1483 1485 1485 1487 1489 1491 1493 1494 1495 1496 1497 1498 1499 1500 1501 1501 1501 1501 1501 1501 1501 1501 1501 1501 1501 1501 1501 1502 1502 1502 1503 1503 1504 1504 1505 1506 1506 1507 1508 1508
1480 1482 1489 1494 1491 1486 1483 1482 1482 1483 1484 1486 1487 1489 1491 1493 1493 1495 1496 1497 1498 1499 1499 1500 1500 1500 1500 1500 1500 1500 1499 1499 1499 1499 1499 1499 1499 1500 1500 1501 1501 1502 1502 1503 1504 1504 1505 1506 1506
1480 1482 1494 1495 1489 1484 1482 1481 1481 1483 1484 1486 1487 1489 1491 1492 1493 1495 1496 1497 1498 1498 1498 1499 1499 1499 1499 1498 1498 1498 1498 1498 1497 1497 1497 1497 1497 1498 1498 1498 1499 1499 1500 1501 1501 1502 1502 1503 1504
1480 1486 1490 1489 1488 1484 1481 1480 1481 1482 1484 1485 1486 1488 1490 1491 1493 1494 1495 1496 1497 1497 1497 1497 1497 1497 1497 1497 1496 1496 1496 1496 1495 1495 1495 1495 1495 1495 1496 1496 1496 1497 1497 1498 1499 1499 1500 1500 1501
1478 1484 1487 1488 1486 1482 1479 1479 1480 1481 1483 1485 1486 1486 1488 1490 1491 1493 1494 1495 1496 1496 1496 1496 1496 1496 1496 1495 1495 1494 1494 1493 1493 1493 1493 1493 1493 1493 1493 1493 1494 1494 1495 1495 1495 1496 1497 1497 1498
1478 1487 1489 1485 1484 1480 1478 1479 1480 1481 1482 1483 1484 1485 1486 1488 1490 1491 1492 1493 1494 1494 1494 1494 1494 1494 1494 1493 1493 1492 1492 1491 1491 1491 1490 1490 1490 1490 1490 1491 1491 1491 1492 1492 1492 1493 1494 1494 1495
1478 1486 1482 1478 1478 1477 1478 1478 1479 1480 1481 1482 1483 1483 1485 1486 1488 1489 1490 1491 1492 1492 1492 1493 1492 1492 1492 1492 1491 1490 1490 1489 1489 1488 1488 1488 1488 1488 1488 1488 1488 1488 1488 1489 1489 1490 1490 1491 1491
1476 1480 1477 1476 1476 1476 1477 1478 1478 1479 1480 1479 1479 1481 1483 1484 1486 1487 1488 1489 1490 1490 1491 1491 1491 1490 1490 1489 1489 1488 1487 1487 1487 1486 1486 1485 1485 1485 1485 1485 1485 1485 1485 1485 1485 1486 1486 1487 1487
1476 1476 1476 1475 1475 1476 1476 1477 1477 1476 1475 1476 1478 1479 1480 1482 1483 1485 1486 1487 1488 1488 1489 1489 1489 1488 1488 1487 1486 1486 1485 1484 1484 1484 1483 1483 1482 1482 1482 1482 1481 1481 1481 1481 1481 1481 1482 1483 1483
1475 1475 1475 1475 1475 1475 1476 1476 1476 1473 1473 1474 1476 1477 1478 1479 1481 1483 1484 1485 1486 1486 1486 1486 1486 1486 1486 1485 1484 1483 1482 1482 1481 1481 1480 1480 1479 1479 1478 1478 1478 1478 1478 1478 1477 1477 1478 1478 1479
1473 1474 1474 1474 1474 1474 1475 1474 1475 1468 1471 1472 1473 1474 1476 1477 1479 1480 1481 1482 1483 1483 1484 1484 1484 1484 1484 1483 1482 1481 1480 1480 1479 1478 1478 1477 1476 1476 1475 1475 1475 1474 1474 1474 1473 1473 1473 1473 1474
1473 1475 1474 1473 1473 1474 1475 1474 1470 1466 1468 1469 1470 1472 1473 1475 1476 1477 1478 1479 1480 1480 1481 1481 1481 1481 1481 1481 1480 1479 1478 1477 1476 1476 1475 1474 1473 1472 1472 1471 1471 1471 1470 1470 1469 1469 1469 1469 1469
1474 1477 1478 1473 1472 1473 1477 1473 1464 1464 1465 1466 1467 1468 1470 1471 1472 1474 1475 1476 1477 1477 1478 1478 1479 1479 1478 1478 1477 1476 1476 1475 1474 1473 1472 1471 1470 1469 1468 1467 1467 1467 1466 1465 1465 1465 1464 1464 1464
1478 1481 1478 1474 1472 1473 1474 1471 1463 1462 1463 1463 1463 1464 1466 1467 1468 1470 1471 1472 1473 1474 1474 1475 1476 1476 1475 1475 1474 1474 1473 1472 1471 1470 1469 1468 1467 1466 1465 1464 1463 1463 1462 1461 1461 1460 1460 1459 1459
1478 1480 1478 1476 1472 1473 1474 1468 1461 1461 1461 1460 1460 1461 1462 1463 1464 1466 1468 1469 1470 1471 1471 1472 1472 1472 1472 1472 1471 1470 1470 1469 1468 1466 1465 1464 1463 1462 1461 1459 1459 1458 1457 1457 1456 1456 1455 1455 1454
1472 1476 1476 1473 1472 1473 1472 1466 1459 1457 1458 1457 1456 1457 1458 1459 1461 1463 1465 1466 1467 1467 1468 1468 1469 1469 1469 1468 1467 1466 1465 1464 1464 1463 1461 1460 1459 1458 1456 1455 1454 1454 1453 1452 1452 1451 1451 1450 1450
1472 1475 1475 1473 1472 1472 1471 1465 1456 1452 1452 1451 1451 1452 1453 1455 1457 1459 1461 1462 1463 1464 1464 1465 1465 1465 1465 1465 1464 1463 1462 1460 1459 1458 1457 1456 1455 1454 1452 1451 1450 1449 1448 1448 1447 1447 1446 1446 1446
1471 1473 1473 1473 1473 1473 1473 1461 1452 1447 1447 1446 1446 1447 1448 1450 1452 1455 1457 1458 1459 1460 1461 1461 1462 1462 1462 1461 1460 1459 1458 1456 1455 1454 1453 1452 1451 1449 1448 1447 1446 1444 1444 1443 1443 1442 1442 1441 1442
1469 1468 1470 1472 1477 1480 1477 1474 1452 1447 1446 1443 1442 1442 1443 1445 1448 1450 1453 1454 1456 1457 1458 1458 1458 1458 1458 1457 1456 1455 1453 1452 1450 1449 1448 1447 1446 1445 1443 1442 1441 1440 1439 1438 1438 1438 1437 1437 1436
1466 1468 1471 1474 1478 1482 1480 1480 1456 1448 1444 1439 1437 1438 1439 1441 1444 1446 1448 1450 1452 1454 1455 1455 1455 1455 1454 1453 1452 1451 1449 1448 1446 1445 1443 1442 1441 1440 1439 1437 1436 1435 1434 1433 1433 1432 1432 1432 1431
1466 1471 1476 1481 1483 1481 1476 1478 1458 1448 1439 1435 1434 1434 1435 1438 1440 1443 1445 1447 1449 1450 1451 1451 1451 1450 1450 1449 1448 1446 1445 1443 1442 1440 1438 1437 1435 1434 1433 1432 1431 1430 1429 1428 1427 1427 1426 1426 1425
1464 1472 1481 1480 1487 1478 1473 1473 1453 1436 1433 1432 1431 1431 1432 1434 1437 1439 1441 1443 1444 1446 1446 1447 1446 1446 1446 1445 1443 1442 1440 1439 1437 1435 1433 1432 1430 1429 1428 1427 1425 1424 1423 1423 1422 1421 1420 1419 1419
1463 1464 1473 1474 1478 1474 1474 1469 1443 1431 1429 1429 1429 1429 1430 1432 1433 1435 1437 1439 1440 1441 1442 1443 1442 1441 1441 1440 1438 1437 1436 1434 1432 1431 1429 1427 1425 1423 1422 1421 1420 1419 1418 1417 1416 1414 1414 1413 1412
1462 1466 1467 1478 1484 1479 1469 1461 1441 1428 1427 1426 1427 1427 1427 1429 1431 1432 1434 1435 1437 1438 1438 1438 1438 1437 1436 1435 1434 1432 1431 1429 1427 1426 1424 1421 1420 1418 1416 1415 1414 1412 1411 1411 1409 1408 1407 1406 1406
1456 1462 1471 1475 1473 1468 1460 1457 1444 1428 1425 1425 1426 1425 1425 1427 1428 1430 1431 1432 1433 1434 1434 1434 1434 1433 1432 1431 1429 1427 1426 1424 1422 1420 1418 1416 1414 1412 1410 1409 1407 1406 1405 1404 1403 1401 1400 1400 1399
1459 1462 1464 1471 1471 1470 1465 1447 1429 1426 1424 1424 1424 1423 1424 1425 1426 1427 1428 1429 1430 1430 1430 1429 1429 1428 1427 1425 1424 1422 1420 1418 1416 1414 1412 1410 1408 1406 1404 1402 1401 1400 1398 1397 1396 1395 1394 1393 1391
1452 1455 1461 1463 1469 1474 1470 1448 1422 1423 1422 1422 1422 1422 1423 1424 1425 1425 1426 1426 1426 1426 1425 1425 1424 1423 1422 1420 1419 1417 1415 1413 1411 1409 1407 1405 1402 1400 1398 1397 1395 1393 1392 1391 1390 1388 1387 1385 1384